812  
ASUS41 KPHI 030410  
RWRPHI  
 
REGIONAL WEATHER ROUNDUP  
NATIONAL WEATHER SERVICE MOUNT HOLLY NJ  
1200 AM EDT WED SEP 03 2014  
 
NOTE: "FAIR" INDICATES FEW OR NO CLOUDS BELOW 12,000 FEET WITH NO  
SIGNIFICANT WEATHER AND/OR S TO VISIBILITY
.  
 
* = STATION DOES NOT REPORT PRECIPITATION (E.G. RAIN, SNOW, ETC.)  
OR FOG.
 
 
NJZ015>026-030500-  
SOUTHERN NEW JERSEY  
 
CITY SKY/WX TMP DP RH WIND PRES REMARKS
 
POMONA CLOUDY 73 70 90 NW7 29.90R  
RIO GRANDE* CLOUDY 81 72 74 NW3 29.89S  
MILLVILLE CLOUDY 73 70 90 CALM 29.90R  
WRIGHTSTOWN CLOUDY 72 70 95 W10 29.86R  
MOUNT HOLLY CLOUDY 73 68 84 SW6 29.89R  
TRENTON CLOUDY 77 67 71 W8 29.87R  
 

 
NJZ001>014-030500-  
NORTHERN NEW JERSEY  
 
CITY SKY/WX TMP DP RH WIND PRES REMARKS
 
SUSSEX MOCLDY 76 69 79 VRB3 29.85R  
ANDOVER* N/A 75 69 81 SW6 29.86R  
MORRISTOWN CLOUDY 79 64 61 SW9G16 29.84R  
NEWARK CLOUDY 82 66 58 W20G25 29.82R  
TETERBORO CLOUDY 81 65 58 W14G24 29.80R  
CALDWELL CLOUDY 78 65 63 W7G18 29.83R  
SOMERVILLE CLOUDY 78 66 66 VRB6 29.83R  
ALLAIRE* CLOUDY 77 64 65 SW10 29.86S  
TOMS RIVER* CLOUDY 73 70 88 SW5 29.88S  
 

 
PAZ043-044-047-054-055-060>062-066>071-030500-  
EASTERN PENNSYLVANIA  
 
CITY SKY/WX TMP DP RH WIND PRES REMARKS
 
PHILADELPHIA CLOUDY 75 70 84 W9 29.89R  
NORTH PHILA CLOUDY 77 68 73 SW7 29.90R  
BLUE BELL MOCLDY 75 70 83 W5 29.88S  
DOYLESTOWN MOCLDY 74 67 78 SW7 29.88R  
QUAKERTOWN* MOCLDY 72 68 88 MISG 29.90S  
POTTSTOWN MOCLDY 73 67 81 VRB5 29.90S  
LANCASTER MOCLDY 71 67 87 W6 29.90F  
COATESVILLE MOCLDY 72 68 88 W6 29.91F  
READING MOCLDY 74 68 81 NW8 29.89R  
ALLENTOWN MOCLDY 73 67 81 W9 29.88R  
MOUNT POCONO MOCLDY 67 62 84 NW15 29.93R  
HAZLETON MOCLDY 68 66 94 W5 29.97S  
WILKES BARRE CLOUDY 72 64 76 W5 29.91R  
 

 
DEZALL-MDZ008-012-015-019-020-030500-  
DELAWARE AND EASTERN MARYLAND  
 
CITY SKY/WX TMP DP RH WIND PRES REMARKS
 
WILMINGTON CLOUDY 74 71 91 W8 29.89S  
DOVER CLOUDY 76 73 88 W2 29.87R  
GEORGETOWN CLOUDY 80 73 79 S8 29.89F  
EASTON MOCLDY 76 76 100 W7 29.95R  
PATUXENT PTCLDY 79 71 76 S3 29.89S  
OCEAN CITY PTCLDY 83 72 69 SW9 29.89S  
WALLOPS ISLAND PTCLDY 84 73 69 SW7 29.91S HX 90  
CAMBRIDGE MOCLDY 77 72 83 CALM 29.89S  
SALISBURY CLOUDY 85 71 63 SW7 29.90R HX 90  
 

 
PAZ001-021-NYZ056-072-MDZ011-DCZ001-030500-  
OTHER NEARBY LOCATIONS  
 
CITY SKY/WX TMP DP RH WIND PRES REMARKS
 
HARRISBURG MOCLDY 74 69 85 NW9 29.90F  
STATE COLLEGE MOCLDY 67 65 94 CALM 29.97S  
WILLIAMSPORT CLEAR 68 64 87 NW5 29.91R  
BINGHAMTON MOCLDY 64 63 96 W3 29.92S  
NEW YORK CITY CLOUDY 82 64 54 W8G24 29.84R  
BALTIMORE MOCLDY 73 71 93 NW3 29.89S  
WASHINGTON DC MOCLDY 81 73 76 S8 29.91R  
 

 
 
CLICK HERE TO GO TO PREVIOUS BULLETINS.

The Nexlab PA Page
The Nexlab NJ Page
The Nexlab DE Page
The Nexlab MD Page Main Text Page